Location: Ar Ranvel
(48.3000°N, 4.8833°W)
Time: 17:00:05
(UTC+00:00)

Cosmos 2322 Rocket - Pass Details

Date: 28 October 2021
Orbit: 832 x 851 km, 71.0° (Epoch: 27 November)

Event Time Altitude Azimuth Distance (km) Brightness Sun altitude
Rises 18:46:43 0° 224° (SW) 3,367 6.0 -17.1°
Reaches altitude 10° 18:49:13 10° 230° (SW) 2,438 5.3 -17.6°
Maximum altitude 18:54:37 48° 305° (NW) 1,078 3.1 -18.5°
Drops below altitude 10° 19:00:05 10° 20° (NNE) 2,460 4.4 -19.4°
Enters shadow 19:02:08 - 25° (NNE) 3,216 5.0 -19.7°
